Weather History for Millinocket, ME

Change the Weather History Date:

Tuesday, November 13, 2012

  Actual Average Record
Temperature  
Mean Temperature 46 °F 36 °F  
Max Temperature 60 °F 43 °F 62 °F (2010)
Min Temperature 31 °F 29 °F 7 °F (1933)
Degree Days  
Heating Degree Days 19 29  
Month to date heating degree days 339 351  
Since 1 July heating degree days 1044 1285  
Cooling Degree Days 0 0  
Month to date cooling degree days 0 0  
Year to date cooling degree days 443 268  
Moisture  
Dew Point 44 °F    
Average Humidity 82    
Maximum Humidity 93    
Minimum Humidity 70    
Precipitation  
Precipitation 0.63 in 0.12 in 1.53 in (1982)
Month to date precipitation 1.12 1.69  
Year to date precipitation 35.53 36.41  
Sea Level Pressure  
Sea Level Pressure 30.19 in    
Wind  
Wind Speed 7 mph (WNW)    
Max Wind Speed 18 mph    
Max Gust Speed 25 mph    
Visibility 7 miles    
Events Rain    
T = Trace of Precipitation, MM = Missing Value Source: NWS Daily Summary

Daily Weather History Graph

Daily Weather History Graph

Search for Another Location

Airport:

Trip Planner

Search our weather history database for the weather conditions in past years. The results will help you decide how hot, cold, wet, or windy it might be!

Date:

Astronomy

Nov. 13, 2012 Rise Set
Actual Time 6:32 AM EST 4:05 PM EST
Civil Twilight 5:59 AM EST 4:37 PM EST
Nautical Twilight 5:24 AM EST 5:13 PM EST
Astronomical Twilight 4:49 AM EST 5:48 PM EST
Moon 6:06 AM EST (11/13) 3:54 PM EST (11/13)
Length of Visible Light 10h 37m
Length of Day
9h 33m
Waning Crescent, 0% of the Moon is Illuminated
Nov 13
Waning Crescent
Nov 13
New
Nov 20
First Quarter
Nov 28
Full
Dec 6
Last Quarter

Hourly Weather History & Observations

Time (EST) Temp. Windchill Dew Point Humidity Pressure Visibility Wind Dir Wind Speed Gust Speed Precip Events Conditions
12:53 AM 55.9 °F - 52.0 °F 87% 30.19 in 10.0 mi South 8.1 mph 23.0 mph N/A   Overcast
1:53 AM 57.0 °F - 52.0 °F 83% 30.18 in 10.0 mi South 8.1 mph 17.3 mph N/A   Scattered Clouds
2:38 AM 57.2 °F - 53.6 °F 88% 30.15 in 10.0 mi South 6.9 mph - N/A   Overcast
2:53 AM 57.9 °F - 53.1 °F 84% 30.16 in 10.0 mi Variable 4.6 mph - N/A   Overcast
3:19 AM 57.2 °F - 53.6 °F 88% 30.13 in 10.0 mi Variable 4.6 mph - N/A   Overcast
3:53 AM 57.9 °F - 53.1 °F 84% 30.13 in 10.0 mi Variable 5.8 mph 16.1 mph N/A   Overcast
4:53 AM 57.9 °F - 55.0 °F 90% 30.11 in 10.0 mi Variable 5.8 mph - N/A   Overcast
5:39 AM 59.0 °F - 55.4 °F 88% 30.07 in 10.0 mi South 5.8 mph - N/A   Overcast
5:53 AM 59.0 °F - 55.9 °F 90% 30.08 in 7.0 mi South 9.2 mph 16.1 mph 0.00 in Rain Light Rain
6:24 AM 59.0 °F - 55.4 °F 88% 30.07 in 6.0 mi Variable 4.6 mph - 0.00 in Rain Light Rain
6:37 AM 59.0 °F - 55.4 °F 88% 30.06 in 10.0 mi Variable 5.8 mph - 0.00 in Rain Light Rain
6:53 AM 59.0 °F - 57.0 °F 93% 30.08 in 5.0 mi Variable 5.8 mph - 0.03 in Rain Rain
7:40 AM 51.8 °F - 48.2 °F 88% 30.10 in 5.0 mi WNW 15.0 mph 25.3 mph 0.01 in Rain Light Rain
7:51 AM 51.8 °F - 46.4 °F 82% 30.10 in 1.8 mi WNW 11.5 mph 19.6 mph 0.08 in Rain Heavy Rain
7:53 AM 51.1 °F - 46.9 °F 86% 30.13 in 1.2 mi WNW 10.4 mph 19.6 mph 0.11 in Rain Heavy Rain
8:07 AM 50.0 °F - 46.4 °F 87% 30.12 in 2.0 mi WNW 12.7 mph 19.6 mph 0.06 in Rain Rain
8:20 AM 50.0 °F - 46.4 °F 87% 30.12 in 6.0 mi West 5.8 mph 18.4 mph 0.08 in Rain Light Rain
8:43 AM 48.2 °F - 46.4 °F 93% 30.12 in 1.8 mi WNW 5.8 mph 18.4 mph 0.14 in Rain Heavy Rain
8:53 AM 48.9 °F - 46.0 °F 90% 30.13 in 1.2 mi NW 5.8 mph - 0.19 in Rain Heavy Rain
8:57 AM 48.2 °F - 46.4 °F 93% 30.11 in 2.0 mi NW 9.2 mph - 0.01 in Rain Light Rain
9:02 AM 48.2 °F - 46.4 °F 93% 30.11 in 7.0 mi WNW 9.2 mph 16.1 mph 0.01 in Rain Light Rain
9:51 AM 48.2 °F - 44.6 °F 87% 30.14 in 1.8 mi WNW 6.9 mph - 0.09 in Rain Heavy Rain
9:53 AM 48.0 °F - 45.0 °F 89% 30.17 in 1.5 mi WNW 6.9 mph - 0.10 in Rain Heavy Rain
10:04 AM 48.2 °F - 44.6 °F 87% 30.13 in 3.0 mi WNW 8.1 mph - 0.01 in Rain Light Rain
10:53 AM 48.0 °F - 45.0 °F 89% 30.15 in 3.0 mi Calm Calm - 0.04 in Rain Rain
11:53 AM 46.0 °F 42.5 °F 43.0 °F 89% 30.17 in 5.0 mi West 6.9 mph - 0.07 in Rain Light Rain
12:53 PM 46.0 °F 43.9 °F 43.0 °F 89% 30.18 in 10.0 mi WNW 4.6 mph - 0.03 in Rain Light Rain
1:12 PM 44.6 °F 37.8 °F 39.2 °F 81% 30.18 in 5.0 mi NW 15.0 mph 23.0 mph 0.02 in Rain Light Rain
1:53 PM 41.0 °F 35.2 °F 37.0 °F 86% 30.20 in 7.0 mi NW 9.2 mph - 0.05 in Rain Light Rain
2:07 PM 41.0 °F 35.8 °F 37.4 °F 87% 30.19 in 7.0 mi WNW 8.1 mph 17.3 mph 0.00 in Rain Light Rain
2:53 PM 41.0 °F 35.2 °F 36.0 °F 82% 30.23 in 10.0 mi WNW 9.2 mph - 0.01 in   Overcast
3:53 PM 41.0 °F 33.9 °F 33.1 °F 73% 30.26 in 10.0 mi NW 12.7 mph 20.7 mph N/A   Overcast
4:53 PM 39.0 °F 33.4 °F 30.9 °F 73% 30.28 in 10.0 mi WNW 8.1 mph 16.1 mph N/A   Overcast
5:53 PM 39.0 °F 32.3 °F 30.9 °F 73% 30.32 in 10.0 mi WNW 10.4 mph 18.4 mph N/A   Mostly Cloudy
6:53 PM 37.9 °F 32.1 °F 30.0 °F 73% 30.34 in 10.0 mi WNW 8.1 mph - N/A   Clear
7:53 PM 37.0 °F - 28.0 °F 70% 30.38 in 10.0 mi Calm Calm - N/A   Clear
8:53 PM 35.1 °F 31.0 °F 28.0 °F 76% 30.40 in 10.0 mi WNW 4.6 mph - N/A   Clear
9:53 PM 34.0 °F 29.8 °F 27.0 °F 75% 30.42 in 10.0 mi NW 4.6 mph - N/A   Clear
10:53 PM 33.1 °F 28.7 °F 27.0 °F 78% 30.43 in 10.0 mi WNW 4.6 mph - N/A   Clear
11:53 PM 30.9 °F 26.2 °F 26.1 °F 82% 30.44 in 10.0 mi WNW 4.6 mph - N/A   Clear